Weather History for Sand Point, AK

Change the Weather History Date:

Wednesday, January 23, 2013

  Actual Average Record
Temperature  
Mean Temperature 35 °F -  
Max Temperature 37 °F 33 °F 46 °F (2014)
Min Temperature 33 °F 27 °F 6 °F (2012)
Degree Days  
Heating Degree Days 30    
Moisture  
Dew Point 34 °F    
Average Humidity 96    
Maximum Humidity 100    
Minimum Humidity 87    
Precipitation  
Precipitation 0.00 in - - ()
Sea Level Pressure  
Sea Level Pressure 29.21 in    
Wind  
Wind Speed 2 mph (NNW)    
Max Wind Speed 10 mph    
Max Gust Speed 17 mph    
Visibility 9 miles    
Events      
Averages and records for this station are not official NWS values.
T = Trace of Precipitation, MM = Missing Value Source: NWS Daily Summary

Daily Weather History Graph

Daily Weather History Graph

Search for Another Location

Airport:

Trip Planner

Search our weather history database for the weather conditions in past years. The results will help you decide how hot, cold, wet, or windy it might be!

Date:

Astronomy

Jan. 23, 2013 Rise Set
Actual Time 9:48 AM AKST 6:00 PM AKST
Civil Twilight 9:06 AM AKST 6:42 PM AKST
Nautical Twilight 8:21 AM AKST 7:27 PM AKST
Astronomical Twilight 7:38 AM AKST 8:10 PM AKST
Moon 3:11 PM AKST (1/23) 7:18 AM AKST (1/23)
Length of Visible Light 9h 35m
Length of Day
8h 12m
Waxing Gibbous, 90% of the Moon is Illuminated
Jan 23
Waxing Gibbous
Jan 26
Full
Feb 3
Last Quarter
Feb 9
New
Feb 17
First Quarter

Hourly Weather History & Observations

Time (AKST) Temp. Windchill Dew Point Humidity Pressure Visibility Wind Dir Wind Speed Gust Speed Precip Events Conditions
12:16 AM 33.8 °F - 32.0 °F 93% 29.27 in 10.0 mi Calm Calm - N/A   Overcast
12:36 AM 33.8 °F - 32.0 °F 93% 29.26 in 10.0 mi Calm Calm - N/A   Overcast
12:56 AM 33.8 °F - 33.8 °F 100% 29.26 in 10.0 mi Calm Calm - N/A   Overcast
1:16 AM 33.8 °F - 32.0 °F 93% 29.25 in 10.0 mi Calm Calm - N/A   Overcast
1:36 AM 33.8 °F - 32.0 °F 93% 29.26 in 10.0 mi Calm Calm - N/A   Overcast
1:56 AM 33.8 °F - 33.8 °F 100% 29.25 in 10.0 mi Calm Calm - N/A   Overcast
2:16 AM 33.8 °F - 32.0 °F 93% 29.24 in 10.0 mi Calm Calm - N/A   Overcast
2:36 AM 33.8 °F - 33.8 °F 100% 29.24 in 10.0 mi Calm Calm - N/A   Overcast
2:56 AM 35.6 °F - 33.8 °F 93% 29.24 in 10.0 mi Calm Calm - N/A   Overcast
3:16 AM 33.8 °F - 33.8 °F 100% 29.24 in 10.0 mi Calm Calm - N/A   Overcast
3:36 AM 33.8 °F - 33.8 °F 100% 29.22 in 10.0 mi Calm Calm - N/A   Overcast
3:56 AM 35.6 °F - 33.8 °F 93% 29.22 in 10.0 mi Calm Calm - N/A   Overcast
4:16 AM 33.8 °F - 33.8 °F 100% 29.23 in 10.0 mi Calm Calm - N/A   Overcast
4:36 AM 33.8 °F - 33.8 °F 100% 29.23 in 10.0 mi Calm Calm - N/A   Overcast
4:56 AM 35.6 °F - 33.8 °F 93% 29.22 in 10.0 mi Calm Calm - N/A   Overcast
5:16 AM 35.6 °F - 33.8 °F 93% 29.22 in 10.0 mi Calm Calm - N/A   Overcast
5:36 AM 33.8 °F - 33.8 °F 100% 29.22 in 10.0 mi Calm Calm - N/A   Overcast
5:56 AM 35.6 °F - 33.8 °F 93% 29.21 in 10.0 mi Calm Calm - N/A   Overcast
6:16 AM 33.8 °F - 33.8 °F 100% 29.20 in 10.0 mi Calm Calm - N/A   Overcast
6:36 AM 33.8 °F - 33.8 °F 100% 29.21 in 10.0 mi Calm Calm - N/A   Overcast
6:56 AM 33.8 °F - 33.8 °F 100% 29.21 in 10.0 mi Calm Calm - N/A   Mostly Cloudy
7:16 AM 33.8 °F - 33.8 °F 100% 29.21 in 10.0 mi Calm Calm - N/A   Mostly Cloudy
7:36 AM 33.8 °F - 32.0 °F 93% 29.20 in 10.0 mi Calm Calm - N/A   Mostly Cloudy
7:56 AM 33.8 °F - 33.8 °F 100% 29.20 in 10.0 mi Calm Calm - N/A   Mostly Cloudy
8:16 AM 33.8 °F 30.8 °F 33.8 °F 100% 29.20 in 10.0 mi NE 3.5 mph - N/A   Mostly Cloudy
8:36 AM 35.6 °F - 33.8 °F 93% 29.19 in 10.0 mi Calm Calm - N/A   Mostly Cloudy
8:56 AM 33.8 °F - 33.8 °F 100% 29.19 in 10.0 mi Calm Calm - N/A   Mostly Cloudy
9:16 AM 33.8 °F - 33.8 °F 100% 29.19 in 10.0 mi Calm Calm - N/A   Mostly Cloudy
9:36 AM 33.8 °F - 33.8 °F 100% 29.20 in 10.0 mi Calm Calm - N/A   Mostly Cloudy
9:56 AM 33.8 °F - 33.8 °F 100% 29.20 in 10.0 mi Calm Calm - N/A   Mostly Cloudy
10:16 AM 33.8 °F - 32.0 °F 93% 29.19 in 10.0 mi Calm Calm - N/A   Mostly Cloudy
10:36 AM 35.6 °F 31.7 °F 33.8 °F 93% 29.19 in 10.0 mi NNW 4.6 mph - N/A   Mostly Cloudy
10:56 AM 33.8 °F 29.6 °F 33.8 °F 100% 29.20 in 10.0 mi North 4.6 mph - N/A   Mostly Cloudy
11:16 AM 33.8 °F 30.8 °F 33.8 °F 100% 29.20 in 10.0 mi North 3.5 mph - N/A   Mostly Cloudy
11:36 AM 35.6 °F 32.8 °F 33.8 °F 93% 29.19 in 10.0 mi NNW 3.5 mph - N/A   Mostly Cloudy
11:56 AM 35.6 °F 31.7 °F 33.8 °F 93% 29.19 in 10.0 mi WNW 4.6 mph - N/A   Mostly Cloudy
12:16 PM 35.6 °F 32.8 °F 33.8 °F 93% 29.20 in 10.0 mi NNW 3.5 mph - N/A   Mostly Cloudy
12:36 PM 35.6 °F - 33.8 °F 93% 29.19 in 10.0 mi Calm Calm - N/A   Mostly Cloudy
12:56 PM 35.6 °F - 33.8 °F 93% 29.19 in 10.0 mi Calm Calm - N/A   Overcast
1:16 PM 35.6 °F - 33.8 °F 93% 29.19 in 10.0 mi Calm Calm - N/A   Overcast
1:36 PM 35.6 °F 32.8 °F 33.8 °F 93% 29.19 in 10.0 mi NNW 3.5 mph - N/A   Overcast
1:56 PM 35.6 °F 31.7 °F 33.8 °F 93% 29.18 in 10.0 mi North 4.6 mph - N/A   Overcast
2:16 PM 35.6 °F 31.7 °F 33.8 °F 93% 29.18 in 10.0 mi North 4.6 mph - N/A   Overcast
2:36 PM 33.8 °F 27.7 °F 33.8 °F 100% 29.19 in 5.0 mi North 6.9 mph - N/A   Overcast
2:56 PM 33.8 °F 27.0 °F 33.8 °F 100% 29.18 in 3.0 mi North 8.1 mph - N/A   Overcast
3:16 PM 33.8 °F 28.6 °F 33.8 °F 100% 29.17 in 3.0 mi North 5.8 mph - N/A   Overcast
3:36 PM 33.8 °F 27.7 °F 33.8 °F 100% 29.18 in 3.0 mi NNW 6.9 mph - N/A   Overcast
3:56 PM 33.8 °F 28.6 °F 33.8 °F 100% 29.18 in 4.0 mi NW 5.8 mph - N/A   Overcast
4:16 PM 33.8 °F 28.6 °F 33.8 °F 100% 29.18 in 10.0 mi NW 5.8 mph - N/A   Overcast
4:36 PM 33.8 °F 29.6 °F 33.8 °F 100% 29.17 in 10.0 mi NW 4.6 mph - N/A   Mostly Cloudy
4:56 PM 33.8 °F 29.6 °F 33.8 °F 100% 29.17 in 10.0 mi NNW 4.6 mph - N/A   Mostly Cloudy
5:16 PM 33.8 °F 29.6 °F 33.8 °F 100% 29.18 in 10.0 mi North 4.6 mph - N/A   Mostly Cloudy
5:36 PM 33.8 °F 29.6 °F 33.8 °F 100% 29.17 in 10.0 mi NW 4.6 mph - N/A   Mostly Cloudy
5:56 PM 35.6 °F 31.7 °F 35.6 °F 100% 29.18 in 10.0 mi NNW 4.6 mph - N/A   Mostly Cloudy
6:16 PM 35.6 °F 32.8 °F 35.6 °F 100% 29.19 in 10.0 mi NNW 3.5 mph - N/A   Mostly Cloudy
6:36 PM 35.6 °F 32.8 °F 35.6 °F 100% 29.20 in 10.0 mi North 3.5 mph - N/A   Mostly Cloudy
6:56 PM 35.6 °F 29.2 °F 35.6 °F 100% 29.19 in 5.0 mi North 8.1 mph - N/A   Overcast
7:16 PM 35.6 °F 32.8 °F 35.6 °F 100% 29.19 in 5.0 mi North 3.5 mph - N/A   Overcast
7:36 PM 35.6 °F 32.8 °F 35.6 °F 100% 29.19 in 5.0 mi North 3.5 mph - N/A   Overcast
7:56 PM 35.6 °F 29.9 °F 35.6 °F 100% 29.21 in 5.0 mi NNW 6.9 mph - N/A   Overcast
8:16 PM 37.4 °F 32.8 °F 33.8 °F 87% 29.21 in 10.0 mi NNW 5.8 mph - N/A   Overcast
8:36 PM 35.6 °F 29.9 °F 33.8 °F 93% 29.20 in 10.0 mi North 6.9 mph - N/A   Overcast
8:56 PM 37.4 °F 32.1 °F 33.8 °F 87% 29.21 in 10.0 mi North 6.9 mph - N/A   Overcast
9:16 PM 37.4 °F 31.4 °F 35.6 °F 93% 29.22 in 10.0 mi North 8.1 mph - N/A   Overcast
9:36 PM 37.4 °F 31.4 °F 35.6 °F 93% 29.22 in 10.0 mi North 8.1 mph - N/A   Overcast
9:56 PM 37.4 °F 32.1 °F 35.6 °F 93% 29.23 in 10.0 mi North 6.9 mph - N/A   Mostly Cloudy
10:16 PM 37.4 °F 30.8 °F 35.6 °F 93% 29.23 in 10.0 mi North 9.2 mph - N/A   Mostly Cloudy
10:36 PM 37.4 °F 32.1 °F 35.6 °F 93% 29.24 in 10.0 mi North 6.9 mph - N/A   Overcast
10:56 PM 37.4 °F 32.8 °F 35.6 °F 93% 29.24 in 10.0 mi North 5.8 mph 17.3 mph N/A   Overcast
11:16 PM 37.4 °F 31.4 °F 35.6 °F 93% 29.24 in 10.0 mi North 8.1 mph - N/A   Overcast
11:36 PM 37.4 °F 31.4 °F 35.6 °F 93% 29.26 in 10.0 mi NNW 8.1 mph - N/A   Overcast
11:56 PM 37.4 °F 30.3 °F 33.8 °F 87% 29.27 in 10.0 mi North 10.4 mph 16.1 mph N/A   Overcast